Regional Weather Roundup
Issued by NWS Newport/Morehead, NC

Home | Current Version | Previous Version | Text Only | Print | Product List | Glossary On
Versions: 1 2 3 4 5 6 7 8 9 10 11 12 13 14 15 16 17 18 19 20 21 22 23 24 25 26 27 28 29 30 31 32 33 34 35 36 37 38 39 40 41 42 43 44 45 46 47 48 49 50
104
ASUS42 KMHX 222013
RWRMHX
WEATHER ROUNDUP FOR EASTERN NORTH CAROLINA
NATIONAL WEATHER SERVICE NEWPORT/MOREHEAD CITY NC
400 PM EDT FRI MAY 22 2015

NOTE: "FAIR" INDICATES FEW OR NO CLOUDS BELOW 12,000 FEET
WITH NO SIGNIFICANT WEATHER AND/OR OBSTRUCTIONS TO VISIBILITY

NCZ015>017-031-032-045>047-102-103-222100-
NORTH COAST

CITY           SKY/WX    TMP DP  RH WIND       PRES   REMARKS
EDENTON        SUNNY     71  46  41 W9        30.17S
ELIZABETH CITY SUNNY     72  46  39 NE6       30.16S
KITTY HAWK     CLEAR     67  37  32 E5        30.16F
MANTEO         SUNNY     67  46  46 CALM      30.17F

$$

NCZ045>047-081-094-103-104-222100-
CENTRAL COAST

CITY           SKY/WX    TMP DP  RH WIND       PRES   REMARKS
FRISCO         SUNNY     68  48  48 E6        30.18R
SWANQUARTER      N/A     73 N/A N/A W3G9      30.12S

$$

NCZ095-097-098-100-101-222100-
SOUTHERN COAST

CITY           SKY/WX    TMP DP  RH WIND       PRES   REMARKS
BEAUFORT       PTSUNNY   72  53  51 VRB5      30.16F
CEDAR ISLAND     N/A     70 N/A N/A NE1       30.21S
JACKSONVILLE   SUNNY     74  50  42 VRB6      30.16F
PINEY ISLAND   CLEAR    N/A N/A N/A NE8       30.17S
WILMINGTON     CLOUDY    74  54  49 MISG      30.17S


$$

NCZ011>013-027>030-043-044-078>080-089-090>093-098-222100-
COASTAL PLAIN

CITY           SKY/WX    TMP DP  RH WIND       PRES   REMARKS
AHOSKIE        SUNNY     69  41  35 CALM      30.17S
CLINTON        SUNNY     73  49  41 CALM      30.18F
ELIZABETHTOWN  SUNNY     73  49  42 CALM      30.18S
GOLDSBORO      SUNNY     73  45  36 VRB2      30.15F
GREENVILLE     SUNNY     73  46  38 N6        30.19S
HAVELOCK       SUNNY     73  49  42 NE6       30.17F
KENANSVILLE    MOSUNNY   71  47  42 NW6       30.18F
KINSTON        SUNNY     72  45  37 CALM      30.18F
NEW BERN       MOSUNNY   73  50  44 VRB5G16   30.18F
RICHLANDS      SUNNY     73  48  40 NW5       30.18S
ROCKY MOUNT    SUNNY     73  43  33 NW6       30.17F
WASHINGTON     SUNNY    N/A N/A N/A N3        30.18S
WHITEVILLE     SUNNY     74  52  45 CALM      30.17S

$$

AMZ130-135-150-152-154-156-158-170-250-252-270-ANZ085-086-088-633-658-670-222100-
MARINE OBSERVATIONS

STATION/POSITION TIME  TEMP    WIND        PRES    WAVE   SWELL
                       AIR SEA DIR/SP/G            HT/PER HT/PER
                 (UTC) (F)     (DEG/KT/KT) (MB)    (FT/S) (FT/S)
CHESAPEAKE LIGHT 2000   64     270/  6/  6 1021.9
64 E VA BEACH    1950   61 61  290/ 12/ 14 1020.7    5/ 7   3/ 7
DUCK             1900   63 67   40/  8/ 10 1020.5
2 E DUCK         1911      66                N/A     3/ 7
OREGON INLET     1900   63 67   30/  8/ 10 1021.8
13E OREGON INLT  2000      62                N/A     4/ 8
HATTERAS CG      1900   65 72  360/  7/  9 1021.3
DIAMOND BUOY     1950   64 77   20/ 12/ 14 1021.9    4/ 9   3/ 9
CAPE LOOKOUT     2000   67      70/ 11/ 12 1021.4
BEAUFORT LAB     1900   69 74   10/  3/  9 1020.8
27 SE WRIGHTSVLE 1900   64 77   60/  6/ 10   N/A
5 SE WRIGHTSVLE  1908   68 76   90/  6/ 10 1021.9
225 S CAPE HAT   1950   73 75   60/ 17/ 19 1019.5    4/ 4   2/ 9
41 SE CHARLESTON 1950   70 76   30/ 16/ 19 1020.8    5/ 6   2/ 8

$$



USA.gov is the U.S. government's official web portal to all federal, state and local government web resources and services.